Showing default

VRSS-1, 38782

Orbit data source: Space-Track

VRSS-1, 38782 is a payload satellite owned by ABAE (VE) in SSO that was launched on Sat, 29 Sep 2012 UTC via a CHANG ZHENG 2D launch vehicle from the Jiuquan Satellite Launch Center, China (JSC). Payload-class satellites include a variety of spacecraft equipped with specific instruments for various scientific and technological missions. These include communications satellites like Starlink; space stations such as the ISS; scientific satellites like the Hubble; Earth observation satellites from companies like Planet Labs, Umbra, and HawkEye 360; GPS; miniature CubeSats for education and research; and military/defense satellites.

Loading next visibility...
Identifier
38782, 2012-052A
Orbit
SSO
Country
Flag of UnknownUnknown / VENZ
Related business
Manufacturer
DFH
Mission
Operational Civil Imaging
Bus & Motor
CAST-2000, AOCS
Mass
880 kg wet, ~880 kg dry
Launch date (UTC)
2012-09-29 (13 years ago)
Launch vehicle
CHANG ZHENG 2D
Launch site
Jiuquan Satellite Launch Center, China (JSC)
Object type
Payload
Rocket body
Debris
Shape & HBR
Box + 2 Pan, 2.0 m
Radar Cross Section
4.991 m², Large (>1 m²)

Expand to show TLE details & history
Last TLE update: 8 hours ago

TLE from 8 hours ago
0 VRSS-1
1 38782U 12052A   25258.59400516  .00001046  00000-0  14714-3 0  9991
2 38782  97.5865 244.6565 0019503  57.2985 303.0105 14.79160748699009
Epoch: 2025-09-15T14:15Z
TLE epoch observation values (Epoch: 2025-09-15T14:15:22.045Z)
Latitude
-0.00002°
Longitude
36.01823°
Altitude
627.573 km
Speed
7.549 km/s
True Right ascension
16h 18m 37s
True Declination
0° 00' 00"
Sunlit
Object was in daylight at epoch
Visualization orbit readout
Latitude
Unknown
Longitude
Unknown
Altitude
Unknown
Speed
Unknown
Apparent Right ascension
Unknown
Apparent Declination
Unknown
Sunlit
N/A
Visualization observer readout
Local Sidereal Time
15:08:29
Azimuth
Unknown
Elevation
Unknown
Doppler factor
Unknown
Orbital elements
Apogee altitude
642.669 km
Perigee altitude
615.337 km
Semi-major axis
7,007.14 km
Eccentricity
0.00195
Inclination
97.5865°
RAAN
244.6565°
Arg. of periapsis
57.2985°
True anomaly
302.82284°
Mean anomaly
303.0105°
Eccentric anomaly
302.9167°
Mean motion
3.70026 °/min
Orbital period
97.29 mins
BSTAR
0.00014714
Loading maneuver chart data...
Computing Atmospheric mass density...
Loading historical data...
Loading historical data...
Loading historical data...
Loading historical data...
Loading historical data...
Loading historical data...
Loading historical data...
Other satellites on launch #52 in the year 2012 (2012-09-29 UTC)

Documentation

Showing up to 5 results
|